This is the latest recevied weather packets stored in our database for station/object WA0GMH-1. If no packets are shown the sender has not sent any weather packets the latest 10 day(s).
| Time | Temp. | Humidity | Pressure | Rain* | Wind** | Luminosity | Snow |
|---|---|---|---|---|---|---|---|
| 1777830611 | 20.56° C | 81% | 1012.6 hPa | 0 mm | - | - | - |
| 1777830209 | 20.56° C | 80% | 1012.6 hPa | 0 mm | - | - | - |
| 1777829806 | 20.56° C | 82% | 1012.6 hPa | 0 mm | - | - | - |
| 1777829405 | 20.56° C | 83% | 1012.7 hPa | 0 mm | - | - | - |
| 1777829002 | 20° C | 82% | 1012.8 hPa | 0 mm | - | - | - |
| 1777828600 | 20° C | 84% | 1013.1 hPa | 0 mm | - | - | - |
| 1777828198 | 19.44° C | 84% | 1012.8 hPa | 0 mm | - | - | - |
| 1777827796 | 19.44° C | 85% | 1012.8 hPa | 0 mm | - | - | - |
| 1777827393 | 19.44° C | 85% | 1012.7 hPa | 0 mm | - | - | - |
| 1777826991 | 18.89° C | 85% | 1012.7 hPa | 0 mm | - | - | - |
| 1777826589 | 18.89° C | 100% | 1012.8 hPa | 0 mm | - | - | - |
| 1777826187 | 18.89° C | 85% | 1013 hPa | 0 mm | - | - | - |
| 1777825784 | 18.33° C | 1% | 1012.7 hPa | 0 mm | - | - | - |
| 1777825382 | 18.33° C | 100% | 1012.9 hPa | 0 mm | - | - | - |
| 1777824980 | 17.78° C | 3% | 1012.7 hPa | 0 mm | - | - | - |
| 1777824578 | 17.78° C | 3% | 1012.7 hPa | 0 mm | - | - | - |
| 1777824175 | 17.78° C | 1% | 1012.6 hPa | 0 mm | - | - | - |
| 1777823773 | 17.78° C | 1% | 1012.7 hPa | 0 mm | - | - | - |
| 1777823371 | 17.22° C | 5% | 1012.4 hPa | 0 mm | - | - | - |
| 1777822969 | 17.22° C | 4% | 1012.4 hPa | 0 mm | - | - | - |
| 1777822566 | 17.22° C | 4% | 1012.6 hPa | 0 mm | - | - | - |
| 1777822164 | 16.67° C | 4% | 1012.4 hPa | 0 mm | - | - | - |
| 1777821762 | 16.67° C | 6% | 1012.4 hPa | 0 mm | - | - | - |
| 1777821360 | 16.11° C | 8% | 1012.5 hPa | 0 mm | - | - | - |
| 1777820957 | 16.11° C | 10% | 1012.5 hPa | 0 mm | - | - | - |
* Rain since midnight (hover to see other rain measurements)
** Current wind speed in m/s (hover to see current wind gust speed)